Dewpoint
35 33 34 37 40 38 35 35 33 33 37 40 38 32 32 38 44 44 46 52 53 56 61 62 63 65 66 68 69 70 70 71 71 70 69 70 69 70 69 70 67 66 64 63
32 32 37 33 36 36 34 33 27 31 31 31 31 31 33 34 37 44 50 53 53 57 58 61 63 64 66 68 70 70 70 70 70 69 71 71 69 69 67 68 66 65 62 61
31 34 37 35 32 27 24 24 26 28 28 28 25 27 34 42 40 49 55 54 52 56 59 61 62 64 65 67 68 68 68 70 70 69 70 70 68 69 68 67 67 63 62 58
31 31 31 32 23 22 23 22 22 22 23 20 24 23 34 42 46 52 56 58 56 55 59 60 61 62 65 66 66 68 69 70 70 71 70 70 67 65 64 65 64 63 61 58
22 23 24 25 24 24 23 22 23 23 23 25 24 26 34 40 42 46 55 54 51 53 58 59 60 61 63 65 66 67 68 69 70 70 69 68 66 63 63 62 64 64 63 59
25 24 23 23 23 22 25 25 29 28 28 34 34 34 34 39 43 44 46 50 54 59 57 59 61 61 63 64 65 66 67 68 68 67 66 65 64 63 60 60 57 60 61 60
26 26 28 28 28 28 28 29 26 26 25 28 34 35 40 46 52 44 40 51 55 56 57 58 58 59 61 62 63 65 65 65 64 64 62 62 64 63 63 62 57 58 57 57
24 21 28 36 30 30 29 30 26 26 26 28 28 32 37 44 49 48 46 56 60 62 57 57 58 58 55 61 62 62 63 62 61 60 61 62 64 61 59 60 57 57 57 58
31 27 28 32 31 29 26 28 31 30 33 35 32 37 48 53 50 50 50 53 59 58 57 57 57 55 54 55 56 57 54 56 57 59 62 63 63 62 60 60 60 60 59 55
34 31 29 29 31 30 30 35 35 35 38 35 34 37 43 48 48 51 53 55 55 56 59 61 52 52 54 53 51 54 55 56 57 58 60 59 61 60 59 58 58 59 57 58
34 38 37 37 32 29 29 28 34 40 39 40 38 42 49 47 49 53 54 55 58 57 56 49 48 50 49 48 47 54 53 55 55 56 60 60 59 57 57 57 57 58 59 59
42 42 37 35 33 29 30 33 40 37 35 40 39 42 51 51 52 53 52 55 60 57 54 49 46 46 47 44 48 51 55 52 54 56 53 58 60 59 58 58 57 58 59 59
44 37 31 25 25 36 35 37 37 40 44 41 40 38 51 53 49 51 51 58 59 58 57 53 44 46 48 47 50 52 53 52 50 54 57 58 57 59 58 59 59 59 58 58
50 40 36 30 33 35 35 33 34 42 40 41 40 43 44 47 49 51 55 56 55 57 56 55 50 45 50 53 51 51 53 51 53 53 54 58 57 59 60 60 59 59 58 57
49 45 41 36 35 35 33 33 39 40 41 41 43 44 44 49 54 53 54 54 53 55 55 55 56 55 52 53 53 54 54 54 56 53 54 56 59 59 60 60 60 59 59 57
49 46 43 40 36 34 34 39 41 40 41 41 45 44 46 47 51 51 51 51 52 54 55 55 57 55 55 54 55 55 57 55 53 53 53 56 57 57 59 60 60 60 59 59
47 45 43 39 37 37 33 40 41 41 41 42 41 45 45 46 48 49 53 51 50 52 53 55 57 57 58 54 56 56 54 55 54 54 52 53 56 56 58 58 59 60 60 61
46 46 44 39 41 36 41 45 41 41 42 42 43 44 47 47 50 52 52 49 51 50 52 53 54 54 56 52 54 55 51 52 52 54 53 54 54 55 57 58 58 60 61 61
50 46 41 41 36 38 41 44 43 40 41 43 41 45 46 47 48 49 48 47 44 45 47 48 51 56 56 55 55 54 56 56 55 53 53 54 57 57 58 58 60 60 61 61
46 50 44 39 36 34 43 45 44 44 39 44 44 46 46 46 41 40 42 44 47 48 52 56 55 53 54 55 57 55 52 50 48 48 50 53 54 55 55 57 56 58 58 58
45 46 44 42 39 39 45 44 42 40 43 46 45 45 47 48 49 50 46 48 50 52 55 53 52 50 50 51 53 50 48 46 46 46 47 49 51 52 53 53 53 54 54 55
40 40 38 42 40 38 44 43 42 50 50 47 44 43 47 48 46 48 50 52 53 53 52 50 49 49 48 47 49 46 45 44 43 45 46 47 49 47 45 48 51 52 53 53
39 46 45 47 47 53 49 50 54 51 47 44 43 42 44 45 47 50 52 52 51 50 49 48 48 47 46 45 44 42 42 39 38 41 43 43 44 43 38 42 43 43 48 45
45 53 51 47 50 52 52 52 51 49 46 48 44 51 44 49 51 51 51 50 49 48 47 47 47 46 43 41 39 38 37 37 36 38 39 38 38 36 38 34 33 33 32 35
49 53 51 49 52 54 52 53 57 52 44 44 44 47 52 53 52 50 50 50 48 47 46 45 45 43 42 38 35 33 32 36 35 37 36 36 29 33 33 35 35 31 38 32
47 49 46 43 50 53 53 54 54 52 45 48 52 51 51 52 51 50 50 49 47 44 42 41 40 38 36 32 31 31 31 34 36 35 30 30 27 27 26 28 30 33 32 33
Lifted_Index
-0 -0 -0 0 0 -0 -1 -1 -1 -0 -0 -0 -0 -0 -1 -1 -2 -2 -2 -4 -5 -5 -5 -5 -5 -5 -5 -5 -5 -6 -5 -5 -5 -4 -4 -3 -3 -2 -2 -1 -1 0 1 1
-0 -0 -0 0 -0 -1 -1 -1 -1 -0 -0 -0 -0 -0 -1 -1 -1 -1 -2 -4 -5 -5 -4 -4 -5 -5 -5 -5 -5 -5 -5 -5 -4 -4 -3 -3 -3 -2 -2 -1 -0 1 1 2
-1 -0 -0 -0 -0 -1 -1 -1 -0 -0 -0 -0 -0 -0 -0 -1 -1 -1 -1 -3 -4 -4 -4 -4 -4 -4 -5 -5 -4 -4 -4 -4 -4 -3 -3 -3 -2 -1 -1 -0 0 1 2 3
-0 -0 -1 -1 -0 -0 -0 -0 -0 -0 -0 -0 -0 -0 -0 -1 -1 -1 -1 -2 -2 -3 -4 -4 -4 -4 -4 -4 -4 -4 -4 -4 -4 -3 -3 -2 -2 -1 -1 -0 0 1 2 4
-0 -0 -0 -0 -0 -0 0 0 -0 -0 -0 -0 -0 0 0 -0 -1 -1 -1 -1 -1 -2 -3 -4 -4 -4 -4 -4 -4 -4 -4 -4 -3 -3 -2 -1 -1 -0 0 1 1 2 3 3
0 0 0 -0 -0 -0 0 0 -0 -0 -0 -0 -0 -0 0 -0 -1 -1 -1 -1 -1 -1 -2 -3 -3 -3 -3 -3 -3 -3 -3 -3 -3 -2 -1 -0 0 1 1 2 3 3 3 3
0 0 0 -0 -0 -0 -0 -0 -0 -0 -0 -0 -1 -0 -0 -1 -1 -1 -2 -3 -3 -2 -2 -3 -3 -3 -2 -3 -3 -3 -3 -2 -1 -0 1 1 1 1 2 3 5 5 4 4
-0 -0 -0 -0 -0 -0 -0 -0 -0 -1 -1 -1 -1 -1 -1 -1 -0 -1 -2 -3 -4 -3 -3 -3 -3 -2 -2 -2 -2 -2 -1 0 1 2 2 2 1 2 3 4 5 5 5 5
-0 0 0 -0 -0 0 0 0 -1 -1 -1 -1 -1 -1 -1 -1 -0 0 -1 -2 -3 -3 -3 -3 -2 -2 -1 -1 -0 0 1 2 3 2 2 1 1 2 3 4 5 5 5 5
0 1 1 0 0 0 0 -0 -1 -1 -1 -1 -1 -1 -1 -1 0 0 -0 -1 -2 -2 -2 -2 -1 -0 0 1 1 2 3 3 3 2 2 1 2 3 4 5 5 5 4 5
1 1 1 1 1 1 0 -1 -1 -1 -2 -2 -1 -1 -1 -1 -0 0 -0 -1 -2 -2 -2 -0 1 1 2 2 2 2 3 3 3 3 2 2 2 3 4 5 5 4 4 4
0 1 1 1 1 1 -0 -1 -2 -2 -2 -2 -2 -1 -1 -1 -0 -0 -1 -1 -1 -1 -0 0 2 2 3 3 2 2 2 2 3 3 3 2 3 3 4 5 4 4 3 3
1 1 2 2 1 0 -1 -1 -2 -2 -1 -1 -1 -1 -1 -1 -0 -0 -1 -1 -1 0 1 1 2 2 2 2 2 1 2 2 3 3 3 3 3 3 3 4 4 3 3 3
0 1 1 1 1 0 -0 -1 -1 -1 -1 -1 -1 -0 -0 -0 -0 -0 -1 -1 -0 1 1 2 2 2 1 1 1 1 2 2 2 3 3 3 3 3 3 3 3 3 2 2
-1 -1 0 0 0 0 -0 -0 -1 -1 -1 -0 -0 0 0 0 -0 -0 -0 -0 -0 1 2 2 2 1 1 0 0 1 1 2 2 3 3 3 3 3 2 2 2 2 1 1
-2 -1 -1 -0 -0 -0 -1 -1 -1 -1 -0 -0 0 0 1 1 0 0 0 0 1 1 2 2 1 1 -0 -0 0 1 2 2 3 3 3 3 3 2 2 2 1 1 1 1
-1 -1 -1 -0 -0 -1 -1 -1 -1 -0 0 0 0 1 1 2 2 1 1 1 2 2 2 1 1 0 0 0 1 2 2 3 3 3 3 2 2 2 2 1 1 1 0 0
-1 -1 -1 -0 -1 -1 -1 -1 -1 -0 0 1 1 1 2 2 2 2 2 2 2 2 2 2 1 1 1 1 2 2 3 3 3 2 2 2 2 1 1 1 1 1 0 0
-1 -1 -1 -0 -1 -1 -1 -1 -1 -0 1 1 1 1 2 2 2 2 3 3 3 3 3 2 1 1 1 2 2 2 2 2 2 2 2 2 2 2 2 2 1 1 1 0
-2 -1 -1 -1 -1 -1 -1 -1 -1 -0 0 0 1 1 1 1 2 2 3 3 3 3 2 2 2 2 2 3 3 3 3 3 3 3 3 3 3 3 3 3 3 2 2 2
-2 -2 -1 -1 -1 -1 -1 -1 -1 -1 -1 -0 0 0 1 1 1 2 2 2 2 2 2 2 2 3 4 4 5 5 5 5 5 5 5 5 5 5 5 5 4 4 4 4
-1 -1 -2 -2 -2 -2 -2 -2 -1 -1 -1 -0 0 1 1 1 1 1 1 1 1 2 2 3 3 4 5 6 6 6 6 6 6 6 6 7 7 7 7 7 7 7 6 6
-1 -2 -2 -2 -2 -3 -3 -2 -2 -2 -1 -0 0 1 1 1 0 0 0 1 2 3 3 4 5 5 6 6 6 6 7 7 7 8 9 10 10 11 11 11 10 10 9 9
-2 -2 -2 -2 -2 -2 -3 -2 -2 -1 -1 -0 0 0 0 0 0 0 1 2 3 3 4 5 5 6 6 7 8 8 9 10 11 12 12 13 14 14 14 13 13 13 13 13
-2 -2 -2 -1 -1 -1 -1 -1 -1 -1 -1 -0 -0 -0 -1 -0 0 1 2 2 3 4 5 5 6 7 8 9 10 12 13 14 15 15 15 15 16 16 15 15 15 15 15 15
-3 -3 -2 -1 -1 -0 0 0 -0 -1 -1 -1 -1 -0 -0 0 1 1 2 3 4 4 5 6 7 8 9 11 13 15 16 16 16 16 16 16 17 16 16 15 15 15 15 15